SubID,date,age.yrs,age.wks,age.days,bage.grp,gi,ri,weight,height,cbmi,zlen,zwei,zwfl,zbmi,dob,sex,birthweight,gestage,csect,mom.age,mom.age.grp,primipar2,bf,ebf,bfstatus,respondent,ObsNo,comments
B11994,2/12/2011,0.48,24.86,174,0-5 months,0,0,7.81,65,18.4852071,-1.01,-0.01,0.87,0.77,8/22/2010,male,2.7,35,1,22,20-29,no,yes,no,bf,Mama,1,NA
B11994,3/15/2011,0.56,29.29,205,6-11 months,0,1,8.67,65.5,20.20861255,-1.51,0.51,1.9,1.84,8/22/2010,male,2.7,35,1,22,20-29,no,yes,no,bf,Mama,2,"al bebe le estan saliendo las muelas, y dicen que tiene fiebre en la cabeza y despues le agarra sudor en la cabecita,, que le dan paracetamol.. Y estuvo congestionado y fue a la salita.por mucho moco, e dieron nebuzaciones y paracetamol.. El dr stevens les dijo que tiene consjuntivitis,,.."
B11994,4/14/2011,0.64,33.57,235,6-11 months,1,0,8.77,67.5,19.24828532,-1.23,0.26,1.32,1.3,8/22/2010,male,2.7,35,1,22,20-29,no,yes,no,bf,Mama,3,"estuvo 4 dias con diarrea, le dieron de comer varias cosas en el mismo dia.yogur, bananas y salsas.."
B11994,5/12/2011,0.72,37.57,263,6-11 months,0,0,9.35,68,20.22058824,-1.56,0.56,1.89,1.94,8/22/2010,male,2.7,35,1,22,20-29,no,yes,no,bf,Mama,4,NA
B11994,6/9/2011,0.8,41.57,291,6-11 months,1,0,9.34,69.5,19.33647327,-1.42,0.29,1.39,1.49,8/22/2010,male,2.7,35,1,22,20-29,no,yes,no,bf,Mama,5,tuvo vomitos 3 dias por empacho
B11994,7/5/2011,0.87,45.29,317,6-11 months,0,1,10.05,71.5,19.65866302,-1,0.74,1.63,1.76,8/22/2010,male,2.7,35,1,22,20-29,no,yes,no,bf,Mama,6,tuvo principio de neumonia. Le dieron tratamiento en el hospital
B11994,8/3/2011,0.95,49.43,346,6-11 months,0,0,9.99,72,19.27083333,-1.27,0.46,1.41,1.61,8/22/2010,male,2.7,35,1,22,20-29,no,yes,no,bf,Mama,7,NA
B11994,9/12/2011,1.06,55.14,386,12-23 months,0,1,10.09,72.5,19.19619501,-1.68,0.26,1.38,1.68,8/22/2010,male,2.7,35,1,22,20-29,no,yes,no,bf,Mama,8,NA
B11994,10/17/2011,1.15,60.14,418,12-23 months,1,1,10.07,73,18.89660349,-1.93,0.03,1.22,1.59,8/22/2010,male,2.7,35,1,22,20-29,no,yes,no,bf,Mama,9,"en otros tuvo vomitos , por que se fue de viaje aq Pampa de los indios, el agua es salada y le hizo mal, estuvo una semana con vomitos y diarrea. No comia y lo que comia vomitaba"
B11994,11/11/2011,1.22,63.71,446,12-23 months,0,1,10.21,75,18.15111111,-1.5,-0.02,0.85,1.19,8/22/2010,male,2.7,35,1,22,20-29,no,yes,no,bf,Mama,10,"estuvo conn fiebre segun su mama de 45 grados, lo llevaron a la salita, le inyectaron, le hicieron nebulizaciones, la madre tambien lo llevo a una curandero que le dijo que era porque le estaban saliendo los dientes. Le deje el nebulizador por 2 semanas, volvi a visitarlo a fines del mes, el bebe esta mejor, y ya se le van los dientes que estaban saliendole, ya camina de nuevo y su mama se la ve mas tranquila."
B11994,12/12/2011,1.31,68.14,477,12-23 months,0,0,10.63,76,18.40373961,-1.51,0.15,1.08,1.44,8/22/2010,male,2.7,35,1,22,20-29,no,yes,no,bf,Mama,11,NA
B11994,1/13/2012,1.39,72.71,509,12-23 months,0,0,10.26,76.5,17.53171857,-1.7,-0.36,0.55,0.93,8/22/2010,male,2.7,35,1,22,20-29,no,yes,no,bf,Mama,12,NA
B11994,3/12/2012,1.56,81.14,568,12-23 months,0,1,10.02,77,16.89998313,-2.16,-0.9,0.15,0.62,8/22/2010,male,2.7,35,1,22,20-29,no,yes,no,bf,Mama,13,NA
B11994,4/11/2012,1.64,85.43,598,12-23 months,1,1,10.37,80,16.203125,-1.38,-0.75,-0.09,0.16,8/22/2010,male,2.7,35,1,22,20-29,no,yes,no,bf,Mama,14,NA
B11994,5/10/2012,1.72,89.57,627,12-23 months,0,0,10.72,78,17.61998685,-2.37,-0.6,0.73,1.25,8/22/2010,male,2.7,35,1,22,20-29,no,yes,no,bf,Mama,15,NA
B11994,6/13/2012,1.81,94.43,661,12-23 months,1,1,11.87,80.5,18.31719455,-1.81,0.13,1.4,1.77,8/22/2010,male,2.7,35,1,22,20-29,no,yes,no,bf,Mama,16,"en otros tiene angina , y tuvo vomitos"
B11994,7/11/2012,1.89,98.43,689,12-23 months,0,1,11.51,80,17.984375,-2.23,-0.28,1.15,1.59,8/22/2010,male,2.7,35,1,22,20-29,no,yes,no,bf,Mama,17,"en otras, tenia agitaciones"
B11994,8/13/2012,1.98,103.14,722,12-23 months,0,1,12.08,83.5,17.32582739,-1.34,-0.01,0.96,1.19,8/22/2010,male,2.7,35,1,22,20-29,no,yes,no,bf,Mama,18,NA
B11994,10/11/2012,2.14,111.57,781,24-36 months,0,0,12.51,84.5,17.52039494,-1.28,0.02,0.96,1.17,8/22/2010,male,2.7,35,1,22,20-29,no,yes,no,bf,Mama,19,"en otras, tuvo llagas en la boca"
B11994,11/9/2012,2.22,115.71,810,24-36 months,0,1,11.8,85.5,16.14171882,-1.18,-0.61,0.01,0.18,8/22/2010,male,2.7,35,1,22,20-29,no,yes,no,bf,Mama,20,en otras tiene dolor de ojos
B11994,12/7/2012,2.3,119.71,838,24-36 months,0,0,12.2,88,15.75413223,-0.63,-0.44,-0.21,-0.11,8/22/2010,male,2.7,35,1,22,20-29,no,yes,no,bf,Mama,21,NA
B11994,1/14/2013,2.4,125.14,876,24-36 months,1,0,12.21,87,16.13158938,-1.2,-0.59,0.05,0.23,8/22/2010,male,2.7,35,1,22,20-29,no,yes,no,bf,Mama,22,en otras tuvo vomitos
B11994,2/12/2013,2.48,129.29,905,24-36 months,0,0,12.58,NA,NA,NA,-0.44,NA,NA,8/22/2010,male,2.7,35,1,22,20-29,no,yes,no,bf,Mama,23,NA
B11994,3/15/2013,2.56,133.71,936,24-36 months,0,0,13.26,NA,NA,NA,-0.11,NA,NA,8/22/2010,male,2.7,35,1,22,20-29,no,yes,no,bf,Mama,24,NA
B11994,4/10/2013,2.64,137.43,962,24-36 months,0,0,13.2,NA,NA,NA,-0.24,NA,NA,8/22/2010,male,2.7,35,1,22,20-29,no,yes,no,bf,Mama,25,NA
B11994,6/11/2013,2.81,146.29,1024,24-36 months,0,0,13.47,NA,NA,NA,-0.29,NA,NA,8/22/2010,male,2.7,35,1,22,20-29,no,yes,no,bf,Mama,26,"en otras, le duele el ojo izquierdo"
B11994,7/11/2013,2.89,150.57,1054,24-36 months,0,0,13.67,NA,NA,NA,-0.26,NA,NA,8/22/2010,male,2.7,35,1,22,20-29,no,yes,no,bf,Mama,27,"Desde que cumplio 2 anos, no se enferma. "
B11994,8/14/2013,2.98,155.43,1088,24-36 months,0,1,14.43,92.5,16.86486486,-0.92,0.07,0.85,0.97,8/22/2010,male,2.7,35,1,22,20-29,no,yes,no,bf,Mama,28,NA
B11994,9/10/2013,3.05,159.29,1115,36+ months,1,0,14.27,92.5,16.67786706,-1.07,-0.1,0.71,0.85,8/22/2010,male,2.7,35,1,22,20-29,no,yes,no,bf,Mama,29,NA
B11994,11/12/2013,3.23,168.29,1178,36+ months,0,0,14.4,NA,NA,NA,-0.22,NA,NA,8/22/2010,male,2.7,35,1,22,20-29,no,no,no,not bf,Mama,30,NA
B11994,1/15/2014,3.4,177.43,1242,36+ months,0,0,15.4,96,16.71006944,-0.8,0.13,0.9,0.95,8/22/2010,male,2.7,35,1,22,20-29,no,yes,no,bf,Mama,31,NA
B11994,3/13/2014,3.56,185.57,1299,36+ months,0,0,15.08,95,16.71357341,-1.32,-0.2,0.86,0.98,8/22/2010,male,2.7,35,1,22,20-29,no,yes,no,bf,Mama,32,NA
B11994,4/14/2014,3.65,190.14,1331,36+ months,0,0,15.92,97,16.91571899,-0.96,0.14,1.09,1.14,8/22/2010,male,2.7,35,1,22,20-29,no,yes,no,bf,Mama,33,NA
B11994,5/9/2014,3.72,193.71,1356,36+ months,1,0,14.97,96.5,16.07989476,-1.2,-0.42,0.46,0.53,8/22/2010,male,2.7,35,1,22,20-29,no,yes,no,bf,Mama,34,NA
B11994,6/12/2014,3.81,198.57,1390,36+ months,0,1,15.82,98,16.47230321,-0.97,-0.07,0.8,0.84,8/22/2010,male,2.7,35,1,22,20-29,no,yes,no,bf,Mama,35,NA
B11994,8/11/2014,3.97,207.14,1450,36+ months,0,1,16.31,99.5,16.47433146,-0.87,0.01,0.83,0.86,8/22/2010,male,2.7,35,1,22,20-29,no,yes,no,bf,Mama,36,NA
B11994,9/15/2014,4.07,212.14,1485,36+ months,0,1,17.13,NA,NA,NA,0.3,NA,NA,8/22/2010,male,2.7,35,1,22,20-29,no,yes,no,bf,Mama,37,NA
B11994,10/14/2014,4.15,216.29,1514,36+ months,1,0,16.87,101.5,16.3750637,-0.66,0.11,0.79,0.8,8/22/2010,male,2.7,35,1,22,20-29,no,yes,no,bf,Mama,38,NA
B11994,11/14/2014,4.23,220.71,1545,36+ months,0,1,16.8,103,15.83561127,-0.44,0,0.41,0.42,8/22/2010,male,2.7,35,1,22,20-29,no,yes,no,bf,Mama,39,NA
B11994,12/12/2014,4.31,224.71,1573,36+ months,0,0,16.47,102,15.83044983,-0.78,-0.23,0.4,0.42,8/22/2010,male,2.7,35,1,22,20-29,no,no,no,not bf,Mama,40,NA
B13023,7/25/2011,0.17,9,63,0-5 months,0,0,7.27,61,19.53775867,1.17,2.12,1.75,2.05,5/23/2011,male,3.61,39,0,18,12-19,yes,yes,yes,ebf,Mama,1,NA
B13023,8/26/2011,0.26,13.57,95,0-5 months,0,0,8.62,64,21.04492188,1.1,2.53,2.4,2.56,5/23/2011,male,3.61,39,0,18,12-19,yes,yes,yes,ebf,Mama,2,quedo internado en neo por hiperbilirrubina.
B13023,9/27/2011,0.35,18.14,127,0-5 months,0,0,9.78,64,23.87695313,-0.13,2.92,3.88,3.96,5/23/2011,male,3.61,39,0,18,12-19,yes,yes,yes,ebf,Mama,3,NA
B13023,11/25/2011,0.51,26.57,186,6-11 months,0,0,10.9,66.5,24.64808638,-0.61,2.91,4.24,4.26,5/23/2011,male,3.61,39,0,18,12-19,yes,yes,yes,ebf,Mama,4,NA
B13023,1/26/2012,0.68,35.43,248,6-11 months,1,0,11.08,69,23.27242176,-0.82,2.29,3.53,3.57,5/23/2011,male,3.61,39,0,18,12-19,yes,yes,no,bf,Mama,5,en otros tiene vomitos
B13023,2/23/2012,0.76,39.43,276,6-11 months,0,0,11.2,71,22.21781393,-0.47,2.11,3,3.07,5/23/2011,male,3.61,39,0,18,12-19,yes,yes,no,bf,Mama,6,NA
B13023,3/27/2012,0.85,44.14,309,6-11 months,0,1,11.31,73,21.22349409,-0.21,1.91,2.55,2.63,5/23/2011,male,3.61,39,0,18,12-19,yes,yes,no,bf,Mama,7,NA
B13023,4/30/2012,0.94,49,343,6-11 months,0,0,11.24,74,20.52593134,-0.37,1.57,2.22,2.34,5/23/2011,male,3.61,39,0,18,12-19,yes,yes,no,bf,Mama,8,NA
B13023,5/25/2012,1.01,52.57,368,12-23 months,0,0,11.28,75.5,19.78860576,-0.15,1.42,1.88,1.99,5/23/2011,male,3.61,39,0,18,12-19,yes,yes,no,bf,Mama,9,NA
B13023,6/27/2012,1.1,57.29,401,12-23 months,1,1,11.94,76.5,20.40240933,-0.25,1.71,2.29,2.43,5/23/2011,male,3.61,39,0,18,12-19,yes,yes,no,bf,Mama,10,NA
B13023,7/25/2012,1.18,61.29,429,12-23 months,1,1,11.33,74.5,20.41349489,-1.47,1.04,2.18,2.52,5/23/2011,male,3.61,39,0,18,12-19,yes,yes,no,bf,Mama,11,NA
B13023,8/23/2012,1.25,65.43,458,12-23 months,1,1,11.22,75.5,19.68334722,-1.46,0.76,1.82,2.18,5/23/2011,male,3.61,39,0,18,12-19,yes,yes,no,bf,Mama,12,NA
B13023,9/25/2012,1.35,70.14,491,12-23 months,1,1,11.07,76,19.16551247,-1.68,0.44,1.55,1.95,5/23/2011,male,3.61,39,0,18,12-19,yes,yes,no,bf,Mama,13,en otras tuvo anemia
B13023,10/24/2012,1.42,74.29,520,12-23 months,1,0,11.22,77,18.92393321,-1.64,0.39,1.48,1.87,5/23/2011,male,3.61,39,0,18,12-19,yes,yes,no,bf,Mama,14,en otrasa tuvo vomitos
B13023,11/30/2012,1.53,79.57,557,12-23 months,1,1,11.44,78,18.8034188,-1.68,0.35,1.49,1.88,5/23/2011,male,3.61,39,0,18,12-19,yes,yes,no,bf,Mama,15,NA
B13023,12/26/2012,1.6,83.29,583,12-23 months,0,1,11.2,78.5,18.17517952,-1.77,0.02,1.14,1.54,5/23/2011,male,3.61,39,0,18,12-19,yes,yes,no,bf,Mama,16,"en otras, tuvo llagas en la boca"
B13023,1/24/2013,1.68,87.43,612,12-23 months,0,0,11.21,80.5,17.29871533,-1.35,-0.12,0.73,1,5/23/2011,male,3.61,39,0,18,12-19,yes,yes,no,bf,Otro,17,NA
B13023,2/25/2013,1.76,92,644,12-23 months,1,0,10.96,NA,NA,NA,-0.49,NA,NA,5/23/2011,male,3.61,39,0,18,12-19,yes,yes,no,bf,Otro,18,NA
B13023,3/25/2013,1.84,96,672,12-23 months,0,1,11.8,NA,NA,NA,0.03,NA,NA,5/23/2011,male,3.61,39,0,18,12-19,yes,yes,no,bf,Mama,19,NA
B13023,6/28/2013,2.1,109.57,767,24-36 months,0,1,12.86,NA,NA,NA,0.32,NA,NA,5/23/2011,male,3.61,39,0,18,12-19,yes,yes,no,bf,Mama,20,NA
B13023,8/29/2013,2.27,118.43,829,24-36 months,0,0,13.54,82,20.13682332,-2.4,0.49,2.45,2.85,5/23/2011,male,3.61,39,0,18,12-19,yes,yes,no,bf,Mama,21,NA
B13023,9/24/2013,2.34,122.14,855,24-36 months,0,1,14.03,85,19.41868512,-1.66,0.69,2.19,2.46,5/23/2011,male,3.61,39,0,18,12-19,yes,yes,no,bf,Mama,22,NA
B13023,1/23/2014,2.67,139.43,976,24-36 months,0,0,12.9,87,17.04320254,-1.83,-0.49,0.72,1.01,5/23/2011,male,3.61,39,0,18,12-19,yes,no,no,not bf,Mama,23,NA
B13023,2/24/2014,2.76,144,1008,24-36 months,0,0,13.93,88,17.98295455,-1.72,0.05,1.4,1.69,5/23/2011,male,3.61,39,0,18,12-19,yes,no,no,not bf,Mama,24,NA
B13023,3/24/2014,2.84,148,1037,24-36 months,0,1,14.38,89.5,17.951999,-1.47,0.21,1.45,1.69,5/23/2011,male,3.61,39,0,18,12-19,yes,no,no,not bf,tia,25,NA
B13023,4/22/2014,2.92,152.14,1065,24-36 months,0,0,14.71,88.5,18.78132082,-1.89,0.31,1.94,2.25,5/23/2011,male,3.61,39,0,18,12-19,yes,no,no,not bf,Mama,26,NA
B13023,5/29/2014,3.02,157.43,1102,36+ months,1,0,14.83,90.5,18.10571382,-1.54,0.25,1.6,1.84,5/23/2011,male,3.61,39,0,18,12-19,yes,no,no,not bf,Mama,27,NA
B13023,8/22/2014,3.25,169.57,1187,36+ months,0,1,15.12,92.5,17.67129291,-1.43,0.15,1.41,1.6,5/23/2011,male,3.61,39,0,18,12-19,yes,no,no,not bf,Abuela,28,NA
B13023,9/22/2014,3.34,174,1218,36+ months,0,1,15.45,93,17.8633368,-1.45,0.23,1.56,1.74,5/23/2011,male,3.61,39,0,18,12-19,yes,no,no,not bf,Mama,29,NA
B13023,11/27/2014,3.52,183.43,1284,36+ months,0,1,16.23,95.5,17.79556481,-1.12,0.43,1.63,1.73,5/23/2011,male,3.61,39,0,18,12-19,yes,no,no,not bf,Mama,30,NA
B13132,6/7/2013,0.32,16.71,117,0-5 months,0,1,6.99,NA,NA,NA,0.1,NA,NA,2/10/2013,male,3.196,40,0,16,12-19,yes,yes,yes,ebf,Mama,1,NA
B13132,7/5/2013,0.4,20.71,145,0-5 months,0,1,7.58,64,18.50585938,-0.69,0.22,0.91,0.83,2/10/2013,male,3.196,40,0,16,12-19,yes,yes,yes,ebf,Mama,2,"En otros, tuvo hongos en la lengua."
B13132,8/7/2013,0.49,25.43,178,0-5 months,0,1,8.27,65,19.5739645,-1.11,0.45,1.54,1.45,2/10/2013,male,3.196,40,0,16,12-19,yes,yes,yes,ebf,Mama,3,NA
B13132,9/4/2013,0.56,29.43,206,6-11 months,0,1,9.05,67.5,19.86282579,-0.61,0.89,1.69,1.63,2/10/2013,male,3.196,40,0,16,12-19,yes,yes,yes,ebf,Mama,4,NA
B13132,10/4/2013,0.65,33.71,236,6-11 months,0,0,9.14,67.5,20.06035665,-1.25,0.63,1.8,1.79,2/10/2013,male,3.196,40,0,16,12-19,yes,yes,no,bf,Mama,5,NA
B13132,1/13/2014,0.92,48.14,337,6-11 months,0,1,10.1,73,18.95289923,-0.7,0.63,1.26,1.39,2/10/2013,male,3.196,40,0,16,12-19,yes,yes,no,bf,Mama,6,NA
B13132,2/6/2014,0.99,51.57,361,6-11 months,0,0,10.17,74,18.56829803,-0.67,0.51,1.06,1.21,2/10/2013,male,3.196,40,0,16,12-19,yes,yes,no,bf,Mama,7,NA
B13132,3/6/2014,1.07,55.57,389,12-23 months,0,0,10.37,NA,NA,NA,0.49,NA,NA,2/10/2013,male,3.196,40,0,16,12-19,yes,yes,no,bf,Mama,8,NA
B13132,4/8/2014,1.16,60.29,422,12-23 months,0,0,10.6,74,19.35719503,-1.58,0.47,1.55,1.88,2/10/2013,male,3.196,40,0,16,12-19,yes,yes,no,bf,Mama,9,NA
B13132,5/8/2014,1.24,64.57,452,12-23 months,1,1,10.98,77.5,18.27429761,-0.59,0.6,1.11,1.29,2/10/2013,male,3.196,40,0,16,12-19,yes,yes,no,bf,Mama,10,NA
B13132,8/5/2014,1.48,77.29,541,12-23 months,0,1,12.06,79.5,19.08152367,-0.94,0.92,1.78,2.02,2/10/2013,male,3.196,40,0,16,12-19,yes,yes,no,bf,Mama,11,NA
B13132,10/8/2014,1.66,86.43,605,12-23 months,1,1,11.75,81,17.90885536,-1.1,0.33,1.18,1.4,2/10/2013,male,3.196,40,0,16,12-19,yes,yes,no,bf,Mama,12,NA
B13132,12/9/2014,1.83,95.29,667,12-23 months,0,0,12.13,NA,NA,NA,0.29,NA,NA,2/10/2013,male,3.196,40,0,16,12-19,yes,yes,no,bf,Mama,13,NA
B13163,8/12/2011,0.27,14.29,100,0-5 months,0,0,7.3,61,19.61838216,-0.58,0.92,1.79,1.7,5/4/2011,male,3.399,39,0,19,12-19,yes,yes,yes,ebf,Mama,1,NA
B13163,9/9/2011,0.35,18.29,128,0-5 months,0,0,8.5,62,22.11238293,-1.12,1.6,3.05,2.98,5/4/2011,male,3.399,39,0,19,12-19,yes,yes,yes,ebf,Mama,2,NA
B13163,10/14/2011,0.45,23.29,163,0-5 months,0,1,9.51,65,22.50887574,-0.73,1.98,3.13,3.11,5/4/2011,male,3.399,39,0,19,12-19,yes,yes,yes,ebf,Mama,3,NA
B13163,11/11/2011,0.52,27.29,191,6-11 months,0,1,10.13,67,22.56627311,-0.49,2.14,3.14,3.12,5/4/2011,male,3.399,39,0,19,12-19,yes,yes,no,bf,Mama,4,NA
B13163,12/9/2011,0.6,31.29,219,6-11 months,1,1,10.25,68,22.16695502,-0.67,1.89,2.93,2.93,5/4/2011,male,3.399,39,0,19,12-19,yes,yes,no,bf,Mama,5,NA
B13163,2/14/2012,0.78,40.86,286,6-11 months,1,0,10.21,70,20.83673469,-1.1,1.16,2.26,2.35,5/4/2011,male,3.399,39,0,19,12-19,yes,yes,no,bf,Mama,6,NA
B13163,3/13/2012,0.86,44.86,314,6-11 months,1,0,10.07,71,19.9761952,-1.17,0.79,1.8,1.94,5/4/2011,male,3.399,39,0,19,12-19,yes,yes,no,bf,Mama,7,"un curandero le esta curando, por que se le dio vuelta el vasito de la leche"
B13163,4/11/2012,0.94,49,343,6-11 months,0,0,10.44,71,20.70025789,-1.65,0.89,2.21,2.44,5/4/2011,male,3.399,39,0,19,12-19,yes,yes,no,bf,Mama,8,NA
B13163,5/10/2012,1.02,53.14,372,12-23 months,0,0,10.8,70,22.04081633,-2.52,0.99,2.89,3.25,5/4/2011,male,3.399,39,0,19,12-19,yes,yes,no,bf,Mama,9,NA
B13163,6/13/2012,1.11,58,406,12-23 months,1,0,11,70,22.44897959,-2.99,0.92,3.1,3.57,5/4/2011,male,3.399,39,0,19,12-19,yes,yes,no,bf,Mama,10,NA
B13163,7/13/2012,1.19,62.29,436,12-23 months,0,0,10.93,75.5,19.17459761,-1.17,0.66,1.52,1.81,5/4/2011,male,3.399,39,0,19,12-19,yes,yes,no,bf,Mama,11,NA
B13163,8/13/2012,1.28,66.71,467,12-23 months,0,0,10.2,76,17.65927978,-1.38,-0.16,0.6,0.91,5/4/2011,male,3.399,39,0,19,12-19,yes,yes,no,bf,Mama,12,"en otras, tuvo anginas"
B13163,9/14/2012,1.37,71.29,499,12-23 months,1,0,11.1,78,18.24457594,-1.01,0.41,1.14,1.39,5/4/2011,male,3.399,39,0,19,12-19,yes,yes,no,bf,Mama,13,NA
B13163,10/10/2012,1.44,75,525,12-23 months,1,1,11.12,78,18.27744905,-1.32,0.28,1.16,1.48,5/4/2011,male,3.399,39,0,19,12-19,yes,no,no,not bf,Mama,14,en otras tenia angina
B13163,11/13/2012,1.53,79.86,559,12-23 months,1,0,11.29,80.5,17.42216735,-0.78,0.22,0.82,0.98,5/4/2011,male,3.399,39,0,19,12-19,yes,no,no,not bf,Mama,15,NA
B13163,12/12/2012,1.61,84,588,12-23 months,1,1,11.3,81,17.2229843,-0.92,0.07,0.72,0.9,5/4/2011,male,3.399,39,0,19,12-19,yes,no,no,not bf,Mama,16,"en otras, tuvo vomitos"
B13163,1/15/2013,1.7,88.86,622,12-23 months,0,0,11.52,80.5,17.77709193,-1.45,0.07,1.05,1.35,5/4/2011,male,3.399,39,0,19,12-19,yes,no,no,not bf,Mama,17,NA
B13163,2/13/2013,1.78,93,651,12-23 months,0,0,11.3,NA,NA,NA,-0.25,NA,NA,5/4/2011,male,3.399,39,0,19,12-19,yes,no,no,not bf,Mama,18,NA
B13163,3/11/2013,1.85,96.71,677,12-23 months,0,1,11,NA,NA,NA,-0.62,NA,NA,5/4/2011,male,3.399,39,0,19,12-19,yes,no,no,not bf,Mama,19,NA
B13163,5/14/2013,2.03,105.86,741,24-36 months,0,1,12.96,NA,NA,NA,0.51,NA,NA,5/4/2011,male,3.399,39,0,19,12-19,yes,no,no,not bf,Mama,20,NA
B13163,6/14/2013,2.12,110.29,772,24-36 months,0,1,12.98,NA,NA,NA,0.38,NA,NA,5/4/2011,male,3.399,39,0,19,12-19,yes,no,no,not bf,Otro,21,NA
B13163,7/12/2013,2.19,114.29,800,24-36 months,0,1,13,NA,NA,NA,0.27,NA,NA,5/4/2011,male,3.399,39,0,19,12-19,yes,no,no,not bf,Mama,22,NA
B13163,8/15/2013,2.28,119.14,834,24-36 months,1,0,13.06,86,17.65819362,-1.21,0.16,1.11,1.32,5/4/2011,male,3.399,39,0,19,12-19,yes,no,no,not bf,Mama,23,NA
B13163,11/14/2013,2.53,132.14,925,24-36 months,0,0,14.19,88.5,18.11739921,-1.09,0.5,1.51,1.71,5/4/2011,male,3.399,39,0,19,12-19,yes,no,no,not bf,Mama,24,NA
B13299,4/26/2011,0.15,8,56,0-5 months,1,0,5.2,57,16.00492459,0.21,0.31,0.25,0.25,3/1/2011,female,2.831,40,0,32,30-45,no,yes,yes,ebf,Mama,1,tiene una hernia en el ombligo dice que la dra le dijo que solo se le mejorara. Y estuvo bastantes dias con una diarrea de color verde dice que la dra l unico que le indico es que tomara ka teta de la mama!! Bien ahiii
B13299,5/24/2011,0.23,12,74,0-5 months,0,0,6.34,61.5,16.76250909,1.54,1.17,0.15,0.45,3/1/2011,female,2.831,40,0,32,30-45,no,yes,yes,ebf,Mama,2,"la bebe tiene hongos en la espalada. Dice la dra. que no hay remedio para eso. la mama relata cuando la bebe nacio en la camilla del sipec, la bebe tiene un hongo en la espalda, parece que la mama se lo contagio.. La mama tenia la bebe alzada y se cayo, a la bebe no le paso nada.."
B13299,6/24/2011,0.32,16.43,115,0-5 months,0,1,7.1,60,19.72222222,-0.75,0.95,2,1.87,3/1/2011,female,2.831,40,0,32,30-45,no,yes,yes,ebf,Mama,3,NA
B13299,7/26/2011,0.4,21,147,0-5 months,0,0,8.07,64.5,19.39787272,0.35,1.36,1.57,1.56,3/1/2011,female,2.831,40,0,32,30-45,no,yes,yes,ebf,Mama,4,se chupe el dedo. Tuvo mucho saliva. Le estan danda una crema para los hongos. 
B13299,8/24/2011,0.48,25.14,176,0-5 months,1,0,8.64,65,20.44970414,-0.17,1.47,2.1,2.08,3/1/2011,female,2.831,40,0,32,30-45,no,yes,yes,ebf,Mama,5,"la bebe sigue con los hongos, le dieron crema en la salita."
B13299,9/23/2011,0.56,29.43,206,6-11 months,0,0,8.95,68.5,19.07400501,0.68,1.37,1.41,1.32,3/1/2011,female,2.831,40,0,32,30-45,no,yes,yes,ebf,Mama,6,NA
B13299,11/23/2011,0.73,38.14,267,6-11 months,0,1,9.5,69.5,19.66771906,-0.14,1.23,1.76,1.75,3/1/2011,female,2.831,40,0,32,30-45,no,yes,yes,ebf,Mama,7,NA
B13299,12/23/2011,0.81,42.43,297,6-11 months,1,0,9.08,72.5,17.27467301,0.54,0.61,0.51,0.41,3/1/2011,female,2.831,40,0,32,30-45,no,yes,no,bf,Mama,8,NA
B13299,1/24/2012,0.9,47,329,6-11 months,0,0,9.43,74,17.22059898,0.59,0.68,0.56,0.47,3/1/2011,female,2.831,40,0,32,30-45,no,yes,no,bf,Mama,9,estuvo internada por deshidratacion
B13299,2/21/2012,0.98,51,357,6-11 months,0,1,9.35,74.5,16.84608801,0.32,0.41,0.35,0.31,3/1/2011,female,2.831,40,0,32,30-45,no,yes,no,bf,Mama,10,NA
B13299,3/27/2012,1.07,56,392,12-23 months,0,0,9.43,75.5,16.54313407,0.16,0.25,0.22,0.21,3/1/2011,female,2.831,40,0,32,30-45,no,yes,no,bf,Mama,11,NA
B13299,4/24/2012,1.15,60,420,12-23 months,1,1,9.83,75.5,17.24485768,-0.24,0.41,0.68,0.75,3/1/2011,female,2.831,40,0,32,30-45,no,yes,no,bf,Mama,12,NA
B13299,5/24/2012,1.23,64.29,450,12-23 months,1,1,10.24,77,17.27104065,-0.1,0.56,0.8,0.84,3/1/2011,female,2.831,40,0,32,30-45,no,yes,no,bf,Mama,13,la nena come tierra 
B13299,6/23/2012,1.32,68.57,480,12-23 months,0,0,10.3,77.5,17.14880333,-0.31,0.43,0.76,0.84,3/1/2011,female,2.831,40,0,32,30-45,no,yes,no,bf,Mama,14,NA
B13299,7/23/2012,1.4,72.86,510,12-23 months,1,1,11.11,78,18.26101249,-0.5,0.87,1.47,1.59,3/1/2011,female,2.831,40,0,32,30-45,no,yes,no,bf,Mama,15,NA
B13299,8/23/2012,1.48,77.29,541,12-23 months,0,1,10.39,79,16.64797308,-0.51,0.16,0.54,0.64,3/1/2011,female,2.831,40,0,32,30-45,no,yes,no,bf,Mama,16,en otras tuvo neumonia
B13299,9/21/2012,1.56,81.43,570,12-23 months,0,1,10.93,79,17.51321904,-0.83,0.41,1.09,1.25,3/1/2011,female,2.831,40,0,32,30-45,no,yes,no,bf,Mama,17,en otras se agita mucho
B13299,11/27/2012,1.75,91,637,12-23 months,0,0,11.35,88.5,14.49136583,1.6,0.37,-0.73,-0.82,3/1/2011,female,2.831,40,0,32,30-45,no,yes,no,bf,Mama,18,NA
B13299,12/19/2012,1.81,94.14,659,12-23 months,1,0,10.07,82,14.97620464,-0.73,-0.72,-0.49,-0.4,3/1/2011,female,2.831,40,0,32,30-45,no,yes,no,bf,Mama,19,"en otras, tiene vomitos"
B13299,1/21/2013,1.9,98.86,692,12-23 months,0,1,10.76,81.5,16.19933005,-1.2,-0.34,0.37,0.55,3/1/2011,female,2.831,40,0,32,30-45,no,yes,no,bf,Mama,20,NA
B13299,2/21/2013,1.98,103.29,723,12-23 months,1,1,11,NA,NA,NA,-0.31,NA,NA,3/1/2011,female,2.831,40,0,32,30-45,no,yes,no,bf,Mama,21,NA
B13299,3/22/2013,2.06,107.43,752,24-36 months,0,0,11.11,NA,NA,NA,-0.37,NA,NA,3/1/2011,female,2.831,40,0,32,30-45,no,yes,no,bf,Mama,22,NA
B13299,4/22/2013,2.15,111.86,783,24-36 months,0,0,11.3,NA,NA,NA,-0.38,NA,NA,3/1/2011,female,2.831,40,0,32,30-45,no,yes,no,bf,Mama,23,NA
B13299,5/28/2013,2.24,117,819,24-36 months,0,0,11.66,NA,NA,NA,-0.29,NA,NA,3/1/2011,female,2.831,40,0,32,30-45,no,yes,no,bf,Mama,24,NA
B13299,9/23/2013,2.57,133.86,937,24-36 months,0,0,12.8,86.5,17.1071536,-1.34,-0.04,0.93,1.13,3/1/2011,female,2.831,40,0,32,30-45,no,yes,no,bf,Mama,25,NA
B13299,10/22/2013,2.65,138,966,24-36 months,0,1,12.58,86.5,16.81312439,-1.52,-0.29,0.74,0.95,3/1/2011,female,2.831,40,0,32,30-45,no,yes,no,bf,Mama,26,NA
B13299,11/21/2013,2.73,142.29,996,24-36 months,0,1,13.29,88,17.16167355,-1.29,0.03,0.99,1.2,3/1/2011,female,2.831,40,0,32,30-45,no,yes,no,bf,Mama,27,NA
B13299,1/23/2014,2.9,151.29,1059,24-36 months,0,1,12.8,90.5,15.62833857,-0.99,-0.49,0.03,0.16,3/1/2011,female,2.831,40,0,32,30-45,no,yes,no,bf,Mama,28,NA
B13299,2/24/2014,2.99,155.86,1091,24-36 months,0,0,13.83,91.5,16.52124578,-0.91,0.01,0.67,0.81,3/1/2011,female,2.831,40,0,32,30-45,no,no,no,not bf,Mama,29,NA
B13299,3/25/2014,3.07,160,1120,36+ months,0,0,13.91,90.5,16.98360856,-1.33,-0.05,0.94,1.12,3/1/2011,female,2.831,40,0,32,30-45,no,yes,no,bf,Mama,30,NA
B13299,4/22/2014,3.15,164,1148,36+ months,0,0,14.25,92.5,16.65916728,-0.96,0.04,0.79,0.92,3/1/2011,female,2.831,40,0,32,30-45,no,yes,no,bf,Mama,31,NA
B13299,5/27/2014,3.24,169,1183,36+ months,0,0,14.54,92.5,16.99327003,-1.14,0.08,1.01,1.14,3/1/2011,female,2.831,40,0,32,30-45,no,no,no,not bf,papa,32,NA
B13299,6/24/2014,3.32,173,1211,36+ months,0,1,14.79,94,16.73834314,-0.91,0.12,0.89,0.98,3/1/2011,female,2.831,40,0,32,30-45,no,no,no,not bf,Mama,33,NA
B13299,8/22/2014,3.48,181.43,1270,36+ months,0,1,15.39,96,16.69921875,-0.71,0.23,0.92,0.96,3/1/2011,female,2.831,40,0,32,30-45,no,yes,no,bf,Mama,34,NA
B13299,9/22/2014,3.56,185.86,1301,36+ months,0,1,16.62,98.5,17.13004715,-0.25,0.7,1.25,1.23,3/1/2011,female,2.831,40,0,32,30-45,no,yes,no,bf,Mama,35,NA
B13299,10/23/2014,3.65,190.29,1332,36+ months,0,1,15.52,98,16.15993336,-0.52,0.11,0.62,0.61,3/1/2011,female,2.831,40,0,32,30-45,no,no,no,not bf,Mama,36,NA
B13299,11/26/2014,3.74,195.14,1366,36+ months,0,0,16.01,98,16.67013744,-0.68,0.24,0.95,0.94,3/1/2011,female,2.831,40,0,32,30-45,no,no,no,not bf,Mama,37,NA